www.pogodaiklimat.ru

Погода и климат >> Архив погоды >> Норвегия >> Сёрхьюсен аэропорт


ПОГОДА в Сёрхьюсен аэропорту

  • Прогноз погоды в Сёрхьюсен аэропорту
  • Монитор погоды в Сёрхьюсен аэропорту

АРХИВ ПОГОДЫ в Сёрхьюсен аэропорту

Время (UTC), дата Ветер
(напр.,м/с)
 
Видим.   Явления Облачность Т
(С)
Тd
(С)
f
(%)
Тe
(С)
Тes
(С)
Комфортность P
(гПа)
Po
(гПа)
Тmin
(С)
Tmax
(С)
R
(мм)
R24
(мм)
S
(см)
16 10.07 н/о н/о +14.0 +8.6 70 1016.1 1015.5
17 10.07 н/о н/о +12.9 +8.8 76 1016.0 1015.4
18 10.07 н/о н/о +12.4 +8.1 75 1016.3 1015.7 +10.9 +15.1
19 10.07 н/о н/о +12.6 +8.3 75 1016.2 1015.6
20 10.07 н/о н/о +12.0 +8.3 78 1015.8 1015.2
21 10.07 н/о н/о +11.6 +8.5 81 1015.5 1014.9
22 10.07 н/о н/о +10.8 +7.9 82 1015.3 1014.7
23 10.07 н/о н/о +11.3 +8.4 82 1014.9 1014.3
00 11.07 н/о н/о +11.0 +8.4 84 1014.9 1014.3
01 11.07 н/о н/о +10.7 +9.0 89 1014.7 1014.1
02 11.07 н/о н/о +10.6 +8.9 89 1014.4 1013.8
03 11.07 н/о н/о +10.7 +8.6 87 1014.4 1013.8
04 11.07 н/о н/о +10.8 +8.7 87 1014.2 1013.6
05 11.07 н/о н/о +10.9 +8.5 85 1013.9 1013.3
06 11.07 н/о н/о +11.6 +9.0 84 1013.9 1013.3 +10.5 +12.7
07 11.07 н/о н/о +11.5 +8.9 84 1014.0 1013.4
08 11.07 н/о н/о +12.0 +8.1 77 1014.0 1013.4
09 11.07 н/о н/о +12.8 +8.9 77 1013.9 1013.3
10 11.07 н/о н/о +12.8 +8.7 76 1013.9 1013.3
11 11.07 н/о н/о +12.5 +7.8 73 1013.7 1013.1
12 11.07 н/о н/о +12.3 +7.8 74 1013.7 1013.1
13 11.07 н/о н/о +12.6 +7.9 73 1014.0 1013.4
14 11.07 н/о н/о +12.1 +7.6 74 1014.2 1013.6
15 11.07 н/о н/о +12.5 +7.8 73 1014.1 1013.5
16 11.07 н/о н/о +11.1 +6.9 75 1014.2 1013.6
17 11.07 н/о н/о +11.3 +7.8 79 1014.2 1013.6
18 11.07 н/о н/о +10.7 +7.2 79 1014.3 1013.7 +10.4 +13.5
19 11.07 н/о н/о +10.2 +7.1 81 1014.3 1013.7
20 11.07 н/о н/о +9.9 +7.5 85 1014.4 1013.8
21 11.07 н/о н/о +9.8 +7.2 84 1014.7 1014.1
22 11.07 н/о н/о +9.2 +6.8 85 1014.7 1014.1
23 11.07 н/о н/о +8.9 +7.0 88 1014.7 1014.1
00 12.07 н/о н/о +8.5 +7.0 90 1014.6 1014.0
01 12.07 н/о н/о +8.6 +6.9 89 1014.6 1014.0
02 12.07 н/о н/о +8.6 +6.7 88 1014.6 1014.0
03 12.07 н/о н/о +8.8 +6.8 87 1014.6 1014.0
04 12.07 н/о н/о +9.2 +6.5 83 1014.7 1014.1
05 12.07 н/о н/о +9.5 +6.6 82 1014.7 1014.1
06 12.07 н/о н/о +10.1 +6.6 79 1014.7 1014.1 +8.4 +11.1
07 12.07 н/о н/о +10.6 +6.8 77 1014.9 1014.3
08 12.07 н/о н/о +11.0 +7.1 77 1014.7 1014.1
09 12.07 н/о н/о +11.6 +7.5 76 1014.6 1014.0
10 12.07 н/о н/о +12.3 +8.4 77 1014.5 1013.9
11 12.07 н/о н/о +12.4 +8.7 78 1014.5 1013.9
12 12.07 н/о н/о +12.5 +8.6 77 1014.3 1013.8
13 12.07 н/о н/о +12.5 +8.6 77 1014.4 1013.8
14 12.07 н/о н/о +12.6 +8.9 78 1014.5 1013.9
15 12.07 н/о н/о +12.5 +9.3 81 1014.6 1014.0
16 12.07 н/о н/о +12.3 +9.0 80 1014.5 1014.0
17 12.07 н/о н/о +12.2 +8.9 80 1014.6 1014.0
18 12.07 н/о н/о +12.2 +9.4 83 1014.5 1013.9 +10.0 +13.1
19 12.07 н/о н/о +12.0 +9.2 83 1014.7 1014.1
20 12.07 н/о н/о +11.1 +8.5 84 1015.0 1014.4
21 12.07 н/о н/о +10.0 +7.8 86 1015.2 1014.6
22 12.07 н/о н/о +9.0 +7.6 91 1015.3 1014.7
23 12.07 н/о н/о +7.8 +6.7 93 1015.4 1014.8
00 13.07 н/о н/о +8.1 +7.4 95 1015.3 1014.7
01 13.07 н/о н/о +7.6 +6.7 94 1015.3 1014.7
02 13.07 н/о н/о +8.8 +8.1 95 1015.4 1014.8
03 13.07 н/о н/о +9.6 +8.0 90 1015.3 1014.7
04 13.07 н/о н/о +10.9 +8.7 86 1015.2 1014.6
05 13.07 н/о н/о +11.9 +8.9 82 1015.0 1014.4
06 13.07 н/о н/о +12.2 +9.6 84 1015.0 1014.4 +7.4 +12.6
07 13.07 н/о н/о +12.8 +9.8 82 1015.0 1014.4
08 13.07 н/о н/о +13.5 +8.8 73 1015.1 1014.5
09 13.07 н/о н/о +13.8 +9.9 77 1015.2 1014.6
10 13.07 н/о н/о +14.1 +8.3 68 1015.1 1014.5
11 13.07 н/о н/о +14.8 +7.8 63 1015.0 1014.4
12 13.07 н/о н/о +13.8 +7.1 64 1015.1 1014.6
13 13.07 н/о н/о +13.4 +7.2 66 1015.2 1014.6
14 13.07 н/о н/о +13.2 +7.7 69 1015.4 1014.8
15 13.07 н/о н/о +13.2 +7.0 66 1015.7 1015.1
16 13.07 н/о н/о +11.9 +7.4 74 1015.9 1015.3
17 13.07 н/о н/о +11.1 +7.2 77 1016.1 1015.5
18 13.07 н/о н/о +11.1 +7.0 76 1016.2 1015.6 +11.0 +15.1
19 13.07 н/о н/о +10.7 +6.7 76 1016.5 1015.9
20 13.07 н/о н/о +10.4 +6.7 78 1016.7 1016.1
21 13.07 н/о н/о +9.8 +6.7 81 1016.9 1016.3
22 13.07 н/о н/о +9.6 +6.7 82 1016.9 1016.3
23 13.07 н/о н/о +9.3 +6.4 82 1017.0 1016.4
00 14.07 н/о н/о +8.9 +6.2 83 1017.1 1016.5
01 14.07 н/о н/о +9.0 +5.8 80 1017.0 1016.4
02 14.07 н/о н/о +8.7 +5.8 82 1016.9 1016.3
03 14.07 н/о н/о +8.7 +5.3 79 1017.0 1016.4
04 14.07 н/о н/о +8.4 +5.9 84 1017.1 1016.5
05 14.07 н/о н/о +8.2 +6.0 86 1017.1 1016.5
06 14.07 н/о н/о +7.9 +6.0 88 1017.0 1016.4 +7.9 +11.1
07 14.07 н/о н/о +8.8 +6.1 83 1017.0 1016.4
08 14.07 н/о н/о +9.1 +5.1 76 1017.0 1016.4
09 14.07 н/о н/о +8.4 +5.7 83 1017.4 1016.8
10 14.07 н/о н/о +8.8 +5.0 77 1017.2 1016.6
11 14.07 н/о н/о +8.6 +5.9 83 1017.2 1016.6
12 14.07 н/о н/о +9.2 +5.0 75 1016.9 1016.3
13 14.07 н/о н/о +9.3 +4.5 72 1016.9 1016.3
14 14.07 н/о н/о +9.6 +4.8 72 1016.8 1016.2
15 14.07 н/о н/о +9.6 +5.4 75 1016.6 1016.0
16 14.07 н/о н/о +9.5 +5.5 76 1016.5 1015.9
17 14.07 н/о н/о +9.4 +4.6 72 1016.4 1015.8
18 14.07 н/о н/о +9.3 +4.7 73 1016.3 1015.7 +7.9 +9.8
19 14.07 н/о н/о +9.1 +4.3 72 1016.0 1015.4
20 14.07 н/о н/о +9.0 +5.2 77 1015.9 1015.3
21 14.07 н/о н/о +8.9 +4.5 74 1015.9 1015.3
22 14.07 н/о н/о +8.7 +4.3 74 1015.7 1015.1
23 14.07 н/о н/о +8.7 +4.9 77 1015.6 1015.0
00 15.07 н/о н/о +8.6 +4.6 76 1015.2 1014.6
01 15.07 н/о н/о +8.6 +4.8 77 1015.1 1014.5
02 15.07 н/о н/о +9.1 +4.7 74 1015.0 1014.4
03 15.07 н/о н/о +9.1 +4.9 75 1015.0 1014.4
04 15.07 н/о н/о +9.3 +4.7 73 1014.9 1014.3
05 15.07 н/о н/о +9.5 +4.9 73 1014.8 1014.2
06 15.07 н/о н/о +9.9 +5.1 72 1014.7 1014.1 +8.2 +9.9
07 15.07 н/о н/о +11.1 +3.9 61 1014.3 1013.7
08 15.07 н/о н/о +11.6 +4.6 62 1014.4 1013.8
09 15.07 н/о н/о +11.1 +4.3 63 1014.7 1014.1
10 15.07 н/о н/о +11.4 +4.4 62 1014.7 1014.1
11 15.07 н/о н/о +11.5 +5.0 64 1014.7 1014.1
12 15.07 н/о н/о +11.4 +5.5 67 1014.8 1014.2
13 15.07 н/о н/о +11.3 +6.0 70 1014.9 1014.3
14 15.07 н/о н/о +11.0 +6.4 73 1015.1 1014.5
15 15.07 н/о н/о +10.6 +5.8 72 1015.1 1014.5
16 15.07 н/о н/о +10.5 +6.5 76 1015.3 1014.7
17 15.07 н/о н/о +10.1 +5.9 75 1015.4 1014.8
18 15.07 н/о н/о +10.0 +6.4 78 1015.6 1015.0 +9.8 +12.2
19 15.07 н/о н/о +9.6 +5.8 77 1015.7 1015.1
20 15.07 н/о н/о +9.4 +5.6 77 1016.0 1015.4
21 15.07 н/о н/о +9.2 +5.6 78 1016.2 1015.6
22 15.07 н/о н/о +9.2 +5.4 77 1016.1 1015.5
23 15.07 н/о н/о +8.7 +5.3 79 1016.3 1015.7
00 16.07 н/о н/о +8.6 +5.4 80 1016.4 1015.8
01 16.07 н/о н/о +8.3 +5.9 85 1016.4 1015.8
02 16.07 н/о н/о +8.7 +5.5 80 1016.6 1016.0
03 16.07 н/о н/о +8.9 +5.3 78 1016.8 1016.2
04 16.07 н/о н/о +9.1 +5.8 80 1016.9 1016.3
05 16.07 н/о н/о +9.4 +5.6 77 1016.9 1016.3
06 16.07 н/о н/о +10.0 +5.6 74 1016.9 1016.3 +8.2 +10.2
07 16.07 н/о н/о +11.5 +5.8 68 1016.8 1016.2
08 16.07 н/о н/о +10.7 +5.7 71 1016.7 1016.1
09 16.07 н/о н/о +11.3 +5.6 68 1016.6 1016.0
10 16.07 н/о н/о +11.2 +5.7 69 1016.7 1016.1
11 16.07 н/о н/о +11.8 +6.5 70 1016.9 1016.3
12 16.07 н/о н/о +11.4 +5.9 69 1017.2 1016.6
13 16.07 н/о н/о +11.9 +6.2 68 1017.1 1016.5
14 16.07 н/о н/о +11.2 +6.0 70 1017.2 1016.6
15 16.07 н/о н/о +11.2 +6.6 73 1017.4 1016.8
16 16.07 н/о н/о +11.0 +6.2 72 1017.5 1016.9
17 16.07 н/о н/о +11.3 +5.8 69 1017.6 1017.0
18 16.07 н/о н/о +10.1 +5.9 75 1017.7 1017.1 +10.0 +12.2
19 16.07 н/о н/о +10.2 +6.0 75 1017.7 1017.1
20 16.07 н/о н/о +10.1 +5.9 75 1017.7 1017.1
21 16.07 н/о н/о +9.6 +6.0 78 1017.7 1017.1
22 16.07 н/о н/о +8.8 +6.4 85 1017.8 1017.2
23 16.07 н/о н/о +9.0 +7.0 87 1017.8 1017.2
00 17.07 н/о н/о +9.6 +7.0 84 1017.7 1017.1
01 17.07 н/о н/о +9.6 +7.4 86 1017.5 1016.9
02 17.07 н/о н/о +9.7 +7.3 85 1017.2 1016.6
03 17.07 н/о н/о +9.8 +7.2 84 1016.9 1016.3
04 17.07 н/о н/о +10.2 +7.8 85 1016.6 1016.0
05 17.07 н/о н/о +10.0 +7.9 87 1016.4 1015.8
06 17.07 н/о н/о +10.1 +7.5 84 1016.0 1015.4 +8.7 +10.3
07 17.07 н/о н/о +10.2 +7.6 84 1015.8 1015.2
08 17.07 н/о н/о +10.4 +7.5 82 1015.6 1015.0
09 17.07 н/о н/о +10.6 +6.9 78 1015.4 1014.8
10 17.07 н/о н/о +11.0 +6.9 76 1015.2 1014.7
11 17.07 н/о н/о +11.3 +7.0 75 1015.1 1014.5
12 17.07 н/о н/о +11.6 +7.1 74 1014.8 1014.2
13 17.07 н/о н/о +11.9 +7.6 75 1014.6 1014.0
14 17.07 н/о н/о +11.6 +6.7 72 1014.5 1013.9
15 17.07 н/о н/о +11.4 +6.8 73 1014.3 1013.7

 

Местоположение метеостанции Сёрхьюсен аэропорт (Норвегия): широта 69.79 долгота 20.96 высота над уровнем моря 6 м.

В архиве по умолчанию представлена погода в Сёрхьюсен аэропорту за последнюю неделю. Архивные данные за месяц целиком и за предыдущие месяцы, начиная с января 2011 года, Вы можете получить, выбрав интересующий диапазон дат из раскрывающегося списка и нажав кнопку "Ввод!".


*Определитесь, кто Вы:
робот инопланетянин человек

Внимание! Время в таблицах - всемирное. Для получения местного времени необходимо прибавить поправку, которая равна 1 ч.

Смотрите также архив погоды в соседних городах и на ближайших метеорологических станциях:

Погода в Норднесфьеллете (Норвегия) (32 км)
Погода в Люнгене (Норвегия) (42 км)
Погода в Шиботне (Норвегия) (53 км)
Погода на Маяке Torsvag (Норвегия) (75 км)
Погода в Тромсё (Норвегия) (79 км)
Погода в Тромсё аэропорту (Норвегия) (80 км)
Погода в Тромсё (Холт) (Норвегия) (81 км)
Погода на Саане (Финляндия) (82 км)
Погода в Килписйарви (Финляндия) (83 км)
Погода в Хасвик аэропорту (Норвегия) (90 км)

Пояснения к столбцам:

Ветер - указаны скорость ветра в м/с - средняя за 10 мин, порывы в срок и между сроками (в фигурных скобках) и направление, откуда дует ветер: С - северный, СВ - северо-восточный, В - восточный, ЮВ - юго-восточный, Ю - южный, ЮЗ - юго-западный, З - западный, СЗ - северо-западный.
Видимость - горизонтальная дальность видимости в метрах или километрах. При видимости от 1 до 10 км при отсутствии осадков обычно наблюдается дымка, при ухудшении видимости до 1 км и менее - туман. В сухую погоду видимость может ухудшаться дымом, пылью или мглою.
Явления - указаны атмосферные явления, наблюдавшиеся в срок или в последний час перед сроком; фигурными скобками обозначены явления, наблюдавшиеся между сроками (за 1-3 часа до срока); квадратными скобками обозначены град или гололедные отложения с указанием их диаметра в мм.
Облачность - указаны через наклонную черту общая и нижняя облачность в баллах и высота нижней границы облаков в метрах; квадратными скобками обозначены формы облаков: Ci - перистые, Cs - перисто-слоистые, Cc - перисто-кучевые, Ac - высококучевые, As - высокослоистые, Sc - слоисто-кучевые, Ns - слоисто-дождевые, Cu - кучевые, Cb - кучево-дождевые. Подробнее классификацию облаков см. в Атласе облаков (PDF).
T - Температура воздуха - температура, измеренная на высоте 2 м над землей.
Td - Температура точки росы - температура, при понижении до которой содержащийся в воздухе водяной пар достигнет насыщения.
f - Относительная влажность воздуха - влажноcть воздуха, измеренная на высоте 2 м над землей.
Te - Эффективная температура - температура, которую ощущает одетый по сезону человек в тени. Характеристика душности погоды. При расчете учитывается влияние влажности воздуха и скорости ветра на теплоощущения человека.
Tes - Эффективная температура на солнце - температура, которую ощущает человек, с поправкой на солнечный нагрев. Характеристика знойности погоды. Зависит от высоты солнца над горизонтом, облачности и скорости ветра. Ночью, в пасмурную погоду, а также при ветре 12 м/с и более поправка равна нулю.
P - Атмосферное давление - приведенное к уровню моря атмосферное давление.
Po - Атмосферное давление - измеренное на уровне метеостанции атмосферное давление.
Tmin - Минимальная температура - минимум температуры воздуха на высоте 2 м над землей.
Tmax - Максимальная температура - максимум температуры воздуха на высоте 2 м над землей.
R - Количество осадков - Количество выпавших осадков за период времени, мм. При наведении курсора мыши на число - период времени, за который выпало указанное количество осадков.
R24 - Количество осадков - Количество выпавших осадков за 24 часа, мм.
S - Снежный покров - Высота снежного покрова, см. При наведении курсора мыши на число - состояние снежного покрова и степень покрытия местности в баллах.